EZY259R EGKK-EGPF

Flight info

Callsign EZY259R
Flight time 0h 57m
Altitude 36000
Route LAM L10 BPK UN601 RIBEL DCT ASLIB
Aircraft A320/M-SDE2E3FGHIJ1RWXYZ/LB1

Departure

Time 2026-04-16 21:01
Airport London Gatwick Airport (EGKK)

Arrival

Time 2026-04-16 21:58
Airport Glasgow Airport (EGPF)
Time Latitude Longitude Altitude Speed Heading
2026-04-16 20:36 51.15902 -0.17960 215 ft 0 kts 77°
2026-04-16 20:36 51.15901 -0.17965 214 ft 0 kts 78°
2026-04-16 20:37 51.15861 -0.17938 204 ft 0 kts 78°
2026-04-16 20:50 51.15859 -0.17952 207 ft 4 kts 78°
2026-04-16 20:50 51.15853 -0.17994 208 ft 4 kts 78°
2026-04-16 20:51 51.15848 -0.18036 208 ft 4 kts 78°
2026-04-16 20:51 51.15843 -0.18074 206 ft 2 kts 78°
2026-04-16 20:51 51.15842 -0.18076 212 ft 0 kts 78°
2026-04-16 20:53 51.15842 -0.18075 210 ft 0 kts 80°
2026-04-16 20:54 51.15840 -0.18071 204 ft 2 kts 111°
2026-04-16 20:54 51.15809 -0.18063 208 ft 8 kts 171°
2026-04-16 20:54 51.15737 -0.18038 206 ft 10 kts 163°
2026-04-16 20:54 51.15702 -0.17959 206 ft 8 kts 93°
2026-04-16 20:55 51.15708 -0.17877 204 ft 7 kts 79°
2026-04-16 20:55 51.15717 -0.17811 215 ft 5 kts 78°
2026-04-16 20:55 51.15724 -0.17759 207 ft 5 kts 78°
2026-04-16 20:55 51.15737 -0.17669 208 ft 10 kts 77°
2026-04-16 20:56 51.15750 -0.17569 214 ft 8 kts 81°
2026-04-16 20:56 51.15724 -0.17507 206 ft 6 kts 155°
2026-04-16 20:56 51.15686 -0.17490 207 ft 5 kts 165°
2026-04-16 20:56 51.15657 -0.17478 204 ft 4 kts 165°
2026-04-16 20:57 51.15637 -0.17470 204 ft 3 kts 167°
2026-04-16 20:57 51.15589 -0.17453 215 ft 9 kts 168°
2026-04-16 20:57 51.15534 -0.17434 204 ft 7 kts 168°
2026-04-16 20:57 51.15490 -0.17419 204 ft 6 kts 168°
2026-04-16 20:58 51.15455 -0.17406 204 ft 6 kts 168°
2026-04-16 20:58 51.15392 -0.17384 208 ft 12 kts 167°
2026-04-16 20:58 51.15298 -0.17351 204 ft 16 kts 167°
2026-04-16 20:58 51.15245 -0.17221 215 ft 16 kts 75°
2026-04-16 20:59 51.15267 -0.17074 207 ft 8 kts 78°
2026-04-16 20:59 51.15278 -0.16995 211 ft 7 kts 78°
2026-04-16 20:59 51.15286 -0.16927 204 ft 7 kts 78°
2026-04-16 20:59 51.15266 -0.16837 210 ft 11 kts 141°
2026-04-16 21:00 51.15177 -0.16795 203 ft 16 kts 174°
2026-04-16 21:00 51.15106 -0.16931 203 ft 19 kts 257°
2026-04-16 21:00 51.15054 -0.17308 209 ft 66 kts 258°
2026-04-16 21:00 51.14907 -0.18367 203 ft 127 kts 257°
2026-04-16 21:01 51.14680 -0.19988 232 ft 170 kts 256°
2026-04-16 21:01 51.14417 -0.21820 891 ft 168 kts 256°
2026-04-16 21:01 51.14171 -0.23641 1568 ft 171 kts 257°
2026-04-16 21:01 51.13908 -0.25603 1917 ft 192 kts 257°
2026-04-16 21:02 51.13691 -0.27813 2193 ft 214 kts 271°
2026-04-16 21:02 51.14153 -0.30090 2907 ft 221 kts 300°
2026-04-16 21:02 51.15294 -0.31756 3578 ft 235 kts 332°
2026-04-16 21:03 51.18463 -0.31129 5104 ft 250 kts 43°
2026-04-16 21:03 51.19359 -0.28803 5877 ft 249 kts 78°
2026-04-16 21:03 51.19703 -0.26093 6625 ft 251 kts 82°
2026-04-16 21:03 51.20016 -0.23341 7395 ft 253 kts 83°
2026-04-16 21:04 51.20330 -0.20550 8151 ft 257 kts 82°
2026-04-16 21:04 51.20670 -0.17733 8904 ft 260 kts 81°
2026-04-16 21:04 51.21032 -0.14889 9641 ft 263 kts 81°
2026-04-16 21:04 51.21411 -0.12008 10348 ft 268 kts 81°
2026-04-16 21:05 51.21801 -0.09064 10934 ft 279 kts 81°
2026-04-16 21:05 51.22214 -0.05906 11190 ft 303 kts 81°
2026-04-16 21:05 51.22658 -0.02486 11425 ft 327 kts 81°
2026-04-16 21:05 51.23382 0.01086 11632 ft 352 kts 62°
2026-04-16 21:06 51.24967 0.04123 12167 ft 362 kts 37°
2026-04-16 21:06 51.27177 0.05953 12892 ft 358 kts 12°
2026-04-16 21:06 51.29613 0.06252 13564 ft 353 kts 348°
2026-04-16 21:06 51.32020 0.05432 14238 ft 353 kts 343°
2026-04-16 21:07 51.34421 0.04525 14901 ft 356 kts 343°
2026-04-16 21:07 51.36846 0.03606 15530 ft 359 kts 343°
2026-04-16 21:07 51.39285 0.02690 16147 ft 363 kts 343°
2026-04-16 21:07 51.41762 0.01763 16761 ft 366 kts 343°
2026-04-16 21:08 51.44254 0.00833 17365 ft 369 kts 343°
2026-04-16 21:08 51.46734 -0.00091 17938 ft 372 kts 343°
2026-04-16 21:08 51.49302 -0.01044 18492 ft 376 kts 342°
2026-04-16 21:08 51.51858 -0.01992 19039 ft 379 kts 342°
2026-04-16 21:09 51.54444 -0.02955 19568 ft 382 kts 341°
2026-04-16 21:09 51.57040 -0.03931 20092 ft 385 kts 341°
2026-04-16 21:09 51.59660 -0.04916 20622 ft 388 kts 341°
2026-04-16 21:09 51.62296 -0.05906 21117 ft 391 kts 341°
2026-04-16 21:10 51.64949 -0.06905 21596 ft 393 kts 341°
2026-04-16 21:10 51.67627 -0.07915 22058 ft 396 kts 341°
2026-04-16 21:10 51.70321 -0.08930 22483 ft 400 kts 341°
2026-04-16 21:10 51.73052 -0.09977 22802 ft 406 kts 339°
2026-04-16 21:11 51.75701 -0.11509 23191 ft 403 kts 329°
2026-04-16 21:11 51.78124 -0.13639 23590 ft 402 kts 323°
2026-04-16 21:11 51.80571 -0.15975 24034 ft 404 kts 323°
2026-04-16 21:11 51.82997 -0.18297 24462 ft 406 kts 323°
2026-04-16 21:12 51.85437 -0.20634 24879 ft 409 kts 323°
2026-04-16 21:12 51.87885 -0.22978 25289 ft 411 kts 323°
2026-04-16 21:12 51.90356 -0.25340 25666 ft 413 kts 323°
2026-04-16 21:12 51.92833 -0.27705 26038 ft 415 kts 323°
2026-04-16 21:13 51.95295 -0.30059 26401 ft 417 kts 323°
2026-04-16 21:13 51.97797 -0.32459 26783 ft 418 kts 323°
2026-04-16 21:13 52.00306 -0.34871 27133 ft 420 kts 323°
2026-04-16 21:13 52.02829 -0.37299 27464 ft 422 kts 322°
2026-04-16 21:14 52.05355 -0.39735 27830 ft 424 kts 322°
2026-04-16 21:14 52.07895 -0.42188 28177 ft 426 kts 322°
2026-04-16 21:14 52.10450 -0.44656 28501 ft 427 kts 322°
2026-04-16 21:14 52.13007 -0.47129 28829 ft 429 kts 322°
2026-04-16 21:15 52.15583 -0.49622 29157 ft 431 kts 322°
2026-04-16 21:15 52.18161 -0.52118 29486 ft 432 kts 322°
2026-04-16 21:15 52.20753 -0.54630 29780 ft 434 kts 322°
2026-04-16 21:15 52.23349 -0.57154 30067 ft 435 kts 322°
2026-04-16 21:16 52.25950 -0.59688 30363 ft 436 kts 322°
2026-04-16 21:16 52.28562 -0.62238 30636 ft 438 kts 322°
2026-04-16 21:16 52.31181 -0.64798 30901 ft 440 kts 322°
2026-04-16 21:16 52.33811 -0.67372 31168 ft 441 kts 322°
2026-04-16 21:17 52.36454 -0.69957 31430 ft 443 kts 322°
2026-04-16 21:17 52.39096 -0.72537 31771 ft 442 kts 322°
2026-04-16 21:17 52.41730 -0.75111 32118 ft 440 kts 322°
2026-04-16 21:17 52.44354 -0.77682 32476 ft 439 kts 322°
2026-04-16 21:18 52.46965 -0.80253 32801 ft 438 kts 321°
2026-04-16 21:18 52.49573 -0.82827 33127 ft 437 kts 321°
2026-04-16 21:18 52.52173 -0.85400 33446 ft 436 kts 321°
2026-04-16 21:18 52.54764 -0.87971 33745 ft 435 kts 321°
2026-04-16 21:19 52.57345 -0.90541 34066 ft 434 kts 321°
2026-04-16 21:19 52.59929 -0.93109 34367 ft 433 kts 321°
2026-04-16 21:19 52.62509 -0.95664 34649 ft 433 kts 321°
2026-04-16 21:19 52.65092 -0.98219 34921 ft 433 kts 321°
2026-04-16 21:20 52.67678 -1.00785 35182 ft 433 kts 321°
2026-04-16 21:20 52.70252 -1.03349 35431 ft 433 kts 321°
2026-04-16 21:20 52.72829 -1.05927 35672 ft 433 kts 321°
2026-04-16 21:20 52.75401 -1.08506 35896 ft 433 kts 321°
2026-04-16 21:21 52.77971 -1.11087 36082 ft 433 kts 321°
2026-04-16 21:21 52.83095 -1.16224 36136 ft 429 kts 321°
2026-04-16 21:22 52.88188 -1.21339 36143 ft 428 kts 321°
2026-04-16 21:22 52.93263 -1.26465 36133 ft 427 kts 321°
2026-04-16 21:23 52.98302 -1.31574 36133 ft 427 kts 321°
2026-04-16 21:23 53.03372 -1.36729 36130 ft 427 kts 321°
2026-04-16 21:24 53.08443 -1.41877 36131 ft 427 kts 321°
2026-04-16 21:24 53.13508 -1.47048 36129 ft 427 kts 321°
2026-04-16 21:25 53.18571 -1.52224 36134 ft 427 kts 321°
2026-04-16 21:25 53.23630 -1.57415 36137 ft 427 kts 321°
2026-04-16 21:26 53.28685 -1.62628 36143 ft 427 kts 320°
2026-04-16 21:26 53.33744 -1.67844 36132 ft 427 kts 320°
2026-04-16 21:27 53.38793 -1.73071 36143 ft 427 kts 320°
2026-04-16 21:27 53.43838 -1.78309 36141 ft 427 kts 320°
2026-04-16 21:28 53.48884 -1.83558 36133 ft 427 kts 320°
2026-04-16 21:28 53.53924 -1.88807 36126 ft 426 kts 320°
2026-04-16 21:29 53.58960 -1.94078 36119 ft 426 kts 320°
2026-04-16 21:29 53.63993 -1.99357 36115 ft 426 kts 320°
2026-04-16 21:30 53.69020 -2.04651 36114 ft 426 kts 320°
2026-04-16 21:30 53.74073 -2.09910 36113 ft 430 kts 324°
2026-04-16 21:31 53.79642 -2.13922 36111 ft 436 kts 330°
2026-04-16 21:31 53.85275 -2.17763 36104 ft 437 kts 330°
2026-04-16 21:32 53.90910 -2.21611 36104 ft 437 kts 330°
2026-04-16 21:32 53.96546 -2.25472 36103 ft 436 kts 330°
2026-04-16 21:33 54.02133 -2.29443 36096 ft 431 kts 324°
2026-04-16 21:33 54.07338 -2.34297 35831 ft 430 kts 323°
2026-04-16 21:33 54.09950 -2.36752 35581 ft 428 kts 323°
2026-04-16 21:34 54.12555 -2.39195 35329 ft 426 kts 323°
2026-04-16 21:34 54.15152 -2.41624 35077 ft 424 kts 323°
2026-04-16 21:34 54.17725 -2.44040 34815 ft 422 kts 323°
2026-04-16 21:34 54.20285 -2.46454 34586 ft 419 kts 323°
2026-04-16 21:35 54.22835 -2.48860 34328 ft 417 kts 322°
2026-04-16 21:35 54.25369 -2.51252 34070 ft 415 kts 322°
2026-04-16 21:35 54.27882 -2.53633 33823 ft 412 kts 322°
2026-04-16 21:35 54.30386 -2.56009 33574 ft 411 kts 322°
2026-04-16 21:36 54.32880 -2.58375 33319 ft 409 kts 322°
2026-04-16 21:36 54.35369 -2.60743 33070 ft 408 kts 322°
2026-04-16 21:36 54.37847 -2.63103 32819 ft 407 kts 322°
2026-04-16 21:36 54.39486 -2.64666 32653 ft 406 kts 322°
2026-04-16 21:37 54.41954 -2.67018 32401 ft 405 kts 322°
2026-04-16 21:37 54.44415 -2.69366 32157 ft 404 kts 323°
2026-04-16 21:37 54.46869 -2.71709 31902 ft 403 kts 323°
2026-04-16 21:37 54.49316 -2.74049 31646 ft 401 kts 323°
2026-04-16 21:38 54.51750 -2.76382 31402 ft 400 kts 323°
2026-04-16 21:38 54.54175 -2.78707 31148 ft 399 kts 323°
2026-04-16 21:38 54.56589 -2.81019 30863 ft 395 kts 323°
2026-04-16 21:38 54.58977 -2.83310 30418 ft 391 kts 323°
2026-04-16 21:39 54.61343 -2.85593 29966 ft 388 kts 323°
2026-04-16 21:39 54.63693 -2.87858 29518 ft 385 kts 323°
2026-04-16 21:39 54.66022 -2.90111 29081 ft 382 kts 323°
2026-04-16 21:39 54.68328 -2.92350 28662 ft 379 kts 323°
2026-04-16 21:40 54.70616 -2.94573 28246 ft 376 kts 323°
2026-04-16 21:40 54.72889 -2.96778 27829 ft 373 kts 323°
2026-04-16 21:40 54.75150 -2.98972 27407 ft 371 kts 323°
2026-04-16 21:40 54.77394 -3.01155 26980 ft 369 kts 323°
2026-04-16 21:41 54.79617 -3.03324 26554 ft 366 kts 323°
2026-04-16 21:41 54.81829 -3.05483 26131 ft 364 kts 324°
2026-04-16 21:41 54.84035 -3.07639 25752 ft 365 kts 324°
2026-04-16 21:41 54.86270 -3.09837 25399 ft 372 kts 324°
2026-04-16 21:42 54.88526 -3.12053 25036 ft 373 kts 324°
2026-04-16 21:42 54.90784 -3.14270 24670 ft 372 kts 324°
2026-04-16 21:42 54.93034 -3.16484 24296 ft 371 kts 324°
2026-04-16 21:42 54.95274 -3.18688 23937 ft 370 kts 324°
2026-04-16 21:43 54.97511 -3.20890 23576 ft 369 kts 324°
2026-04-16 21:43 54.99738 -3.23082 23224 ft 367 kts 325°
2026-04-16 21:43 55.01924 -3.25236 22871 ft 365 kts 324°
2026-04-16 21:43 55.04127 -3.27409 22515 ft 363 kts 325°
2026-04-16 21:44 55.06319 -3.29574 22160 ft 361 kts 324°
2026-04-16 21:44 55.08495 -3.31728 21809 ft 359 kts 325°
2026-04-16 21:44 55.10662 -3.33871 21460 ft 357 kts 325°
2026-04-16 21:44 55.12812 -3.36005 21108 ft 355 kts 325°
2026-04-16 21:45 55.14953 -3.38137 20759 ft 353 kts 324°
2026-04-16 21:45 55.17078 -3.40257 20402 ft 351 kts 325°
2026-04-16 21:45 55.19198 -3.42380 20065 ft 350 kts 324°
2026-04-16 21:45 55.21308 -3.44488 19535 ft 352 kts 325°
2026-04-16 21:46 55.23450 -3.46633 18926 ft 357 kts 325°
2026-04-16 21:46 55.25614 -3.48806 18318 ft 361 kts 325°
2026-04-16 21:46 55.27803 -3.51001 17725 ft 363 kts 325°
2026-04-16 21:46 55.29989 -3.53188 17200 ft 363 kts 325°
2026-04-16 21:47 55.32179 -3.55381 16854 ft 359 kts 326°
2026-04-16 21:47 55.34339 -3.57546 16447 ft 357 kts 326°
2026-04-16 21:47 55.36490 -3.59705 16046 ft 355 kts 326°
2026-04-16 21:47 55.38580 -3.61808 15638 ft 353 kts 326°
2026-04-16 21:48 55.40749 -3.64002 15223 ft 352 kts 326°
2026-04-16 21:48 55.42866 -3.66147 14814 ft 350 kts 326°
2026-04-16 21:48 55.44971 -3.68285 14402 ft 348 kts 326°
2026-04-16 21:48 55.47066 -3.70415 14004 ft 347 kts 326°
2026-04-16 21:49 55.49150 -3.72537 13605 ft 345 kts 326°
2026-04-16 21:49 55.51223 -3.74645 13275 ft 342 kts 326°
2026-04-16 21:49 55.53258 -3.76704 13150 ft 332 kts 326°
2026-04-16 21:49 55.55235 -3.78698 12934 ft 325 kts 326°
2026-04-16 21:50 55.57191 -3.80685 12622 ft 323 kts 326°
2026-04-16 21:50 55.59126 -3.82663 12279 ft 321 kts 326°
2026-04-16 21:50 55.61056 -3.84640 11925 ft 320 kts 326°
2026-04-16 21:50 55.62980 -3.86612 11572 ft 319 kts 326°
2026-04-16 21:51 55.64897 -3.88581 11232 ft 318 kts 326°
2026-04-16 21:51 55.66794 -3.90531 11011 ft 310 kts 326°
2026-04-16 21:51 55.68634 -3.92419 10885 ft 301 kts 326°
2026-04-16 21:51 55.70452 -3.94145 10714 ft 295 kts 334°
2026-04-16 21:52 55.72348 -3.95471 10432 ft 293 kts 335°
2026-04-16 21:52 55.74248 -3.96796 10124 ft 291 kts 335°
2026-04-16 21:52 55.76126 -3.98108 9805 ft 289 kts 335°
2026-04-16 21:52 55.77968 -3.99401 9492 ft 287 kts 335°
2026-04-16 21:53 55.79823 -4.00704 9172 ft 286 kts 335°
2026-04-16 21:53 55.81664 -4.01998 8829 ft 284 kts 334°
2026-04-16 21:53 55.83495 -4.03287 8512 ft 282 kts 335°
2026-04-16 21:53 55.85312 -4.04566 8184 ft 280 kts 334°
2026-04-16 21:54 55.87118 -4.05842 7859 ft 278 kts 334°
2026-04-16 21:54 55.88916 -4.07115 7496 ft 277 kts 334°
2026-04-16 21:54 55.90703 -4.08378 7168 ft 275 kts 334°
2026-04-16 21:54 55.92472 -4.09633 6832 ft 273 kts 334°
2026-04-16 21:55 55.94139 -4.11150 6467 ft 266 kts 319°
2026-04-16 21:55 55.95464 -4.13356 6125 ft 257 kts 303°
2026-04-16 21:55 55.96370 -4.16049 5777 ft 249 kts 287°
2026-04-16 21:55 55.96852 -4.19038 5037 ft 257 kts 272°
2026-04-16 21:56 55.96847 -4.22277 4183 ft 267 kts 257°
2026-04-16 21:56 55.96291 -4.25500 3257 ft 279 kts 240°
2026-04-16 21:56 55.95166 -4.28381 2317 ft 290 kts 225°
2026-04-16 21:56 55.93763 -4.31011 1714 ft 288 kts 224°
2026-04-16 21:57 55.92449 -4.33475 1526 ft 262 kts 224°
2026-04-16 21:57 55.91222 -4.35779 1057 ft 250 kts 224°
2026-04-16 21:57 55.90301 -4.37509 773 ft 239 kts 224°
2026-04-16 21:57 55.89188 -4.39594 460 ft 225 kts 225°
2026-04-16 21:58 55.88133 -4.41567 172 ft 216 kts 225°
2026-04-16 21:58 55.87187 -4.43340 20 ft 116 kts 226°
2026-04-16 21:58 55.87077 -4.43566 18 ft 1 kts 230°